[[{"header":{"parameterUnit":"m.s-1","parameterCategory":1,"la1":30.2991,"la2":30.254,"lo1":-89.0895,"lo2":-89.0444,"dy":0.0017,"dx":0.0017,"nx":28,"ny":28,"refTime":"2025-07-08T21:00:00:Z","depth":0,"parameterNumber":2,"parameterNumberName":"U-component_of_WINDS"},"data":[0,0,0,0,0,0,0,0,0,0,0,0,0,0,0,0,0,0,0,0,0,0,0,0,0,0,0,0,0,0,0,0,0,0,0,0,0,0,0,0,0,0,0,0,0,0,0,0,0,0,0,0,0,0,0,0,0,0,3.8644,3.8646,0,3.8754,3.8755,3.8756,3.8682,3.8678,3.8675,3.8672,3.8785,3.8791,3.8797,0,0,0,0,0,0,0,0,0,0,0,0,0,3.8372,3.8377,3.8644,3.8646,3.8647,3.8753,3.8755,3.8756,3.8682,3.8678,3.8674,3.867,3.8783,3.879,3.8798,0,0,0,0,0,0,0,0,0,0,0,0,0,3.8486,3.8379,3.8644,3.8623,3.8622,3.8753,3.8755,3.8757,3.8683,3.8678,3.8673,3.8668,3.8781,3.879,3.8799,3.8957,0,0,3.8827,3.8831,0,0,0,0,0,0,0,0,3.848,3.8496,3.8625,3.8625,3.8624,3.8699,3.87,3.8824,3.8684,3.866,3.8672,3.8666,3.8761,3.8771,3.8803,3.8962,3.8967,3.8828,3.8833,3.8837,3.884,0,0,0,0,0,0,0,3.8472,3.8491,3.8687,3.8626,3.8626,3.8608,3.8619,3.8723,3.8737,3.8662,3.8657,3.867,3.8759,3.8794,3.8805,3.8969,3.8828,3.8836,3.8841,3.8845,3.9262,3.9268,0,0,0,0,0,0,3.8466,3.8485,3.8684,3.8691,3.8538,3.8617,3.8629,3.868,3.8736,3.874,3.8675,3.8667,3.8781,3.8794,3.8809,3.8997,3.8837,3.8846,3.8851,3.9257,3.9264,3.927,0,0,0,0,0,0,3.846,3.8484,3.868,3.8587,3.861,3.8627,3.8685,3.8685,3.8719,3.8746,3.8748,3.8708,3.8777,3.8796,3.892,3.9,3.885,3.8859,3.925,3.9259,3.9267,3.9375,0,0,0,0,0,0,3.8453,3.8483,3.8543,3.8589,3.8615,3.879,3.869,3.869,3.8735,3.8726,3.8777,3.8781,3.8775,3.8907,3.8929,3.901,3.8866,3.9243,3.9254,3.9264,3.9364,3.9386,3.9404,0,0,0,0,0,3.8443,3.857,3.8547,3.8571,3.8691,3.8795,3.881,3.88,3.8742,3.8803,3.8819,3.8779,3.8987,3.892,3.8945,3.9029,3.9238,3.9251,3.9263,3.9355,3.9382,3.9404,0,0,0,0,0,0,3.8535,3.8576,3.855,3.8695,3.8742,3.8782,3.8858,3.8828,3.8893,3.8881,3.8866,3.8878,3.9009,3.9031,3.8956,3.9185,3.9104,3.9122,3.9165,3.919,3.921,3.9202,3.8873,0,0,0,0,0,3.8572,3.8652,3.8683,3.8808,3.8833,3.8842,3.8886,3.8874,3.8922,3.8942,3.8968,3.9016,3.9092,3.9142,3.9214,3.9367,3.9377,3.9437,3.9457,3.9473,3.9489,3.9571,3.9598,3.9311,3.931,3.931,0,0,3.8649,3.8681,3.8733,3.8828,3.8862,3.8945,3.8859,3.8951,3.9013,3.8956,3.9075,3.9096,3.9148,3.9288,3.935,3.9311,3.9571,3.9489,3.9502,3.9509,3.9586,3.9614,3.9638,3.9319,3.9318,3.9316,0,0,3.8832,3.8865,3.8972,3.9008,3.9061,3.9066,3.9092,3.9136,3.9148,3.9266,3.9225,3.9298,3.943,3.9469,3.9506,3.9702,3.9667,3.9726,3.9831,3.991,3.9933,3.9953,4.0022,4.0047,3.9741,3.9742,3.9742,0,3.8922,3.9046,3.9031,3.9126,3.9169,3.912,3.9228,3.9264,3.9338,3.9368,3.9323,3.9486,3.9518,3.9665,3.9713,3.9745,3.9773,3.972,3.9931,3.9951,3.9969,4.0035,4.0061,3.9748,3.9748,3.9747,3.9746,0,3.9153,3.9239,3.9319,3.9391,3.9442,3.9543,3.9544,3.9598,3.9581,3.9591,3.9712,3.9748,3.9826,3.986,3.9845,4.0005,3.9978,3.9932,3.985,4.0003,4.0065,4.009,3.9758,3.9756,3.9754,3.9752,0,0,3.9398,3.9459,3.9489,3.952,3.9574,3.9641,3.9739,3.9814,3.986,3.9913,3.9994,4.0106,4.0063,4.0105,4.0094,4.0164,4.0316,4.0109,4.011,4.0145,4.0494,4.0528,4.0557,4.0293,4.0298,4.0302,4.0489,0,3.9584,3.9755,3.9744,3.9905,3.9984,3.9938,4.0024,4.0066,4.0078,4.0146,4.0158,4.0238,4.0175,4.02,4.0267,4.0283,4.0386,4.027,4.0369,4.0373,4.0357,4.059,4.0627,4.0802,4.0513,4.0517,4.052,0,3.9824,3.9883,4.0052,4.0093,4.0125,4.0203,4.027,4.0336,4.0383,4.0386,4.0432,4.0409,4.0508,4.0424,4.056,4.0481,4.0521,4.0535,4.0541,4.055,4.0456,4.0605,4.0857,4.0884,4.0558,4.0555,4.0552,0,3.9985,4.0107,4.0223,4.0252,4.0303,4.0358,4.0381,4.0423,4.0468,4.0527,4.0556,4.0626,4.0664,4.0719,4.0715,4.0654,4.0853,4.0768,4.0858,4.0858,4.0902,4.09,4.1165,4.0929,4.0928,4.0928,4.0927,0,4.0194,4.0298,4.0296,4.0368,4.0483,4.047,4.0585,4.0602,4.064,4.0714,4.0679,4.0749,4.074,4.081,4.0808,4.092,4.0938,4.0943,4.0941,4.0946,4.0946,4.0972,4.096,4.0935,4.0933,4.0932,4.0931,0,4.0393,4.0396,4.052,4.0557,4.0569,4.0652,4.0684,4.0752,4.0759,4.0853,4.0875,4.0887,4.0968,4.0969,4.1063,4.1061,4.1198,4.1183,4.1182,4.1179,4.1269,4.126,4.156,4.1599,4.1338,4.134,4.1342,0,4.0526,4.0606,4.0651,4.0698,4.0724,4.08,4.0846,4.0835,4.0884,4.0942,4.1003,4.108,4.1142,4.1273,4.1291,4.1361,4.1347,4.1447,4.1358,4.136,4.1348,4.1343,4.1351,4.1465,4.1468,4.147,4.1472,0,4.0762,4.0759,4.0825,4.0893,4.0947,4.1,4.1049,4.1089,4.1083,4.114,4.1222,4.1269,4.1363,4.1441,4.1509,4.1533,4.1503,4.15,4.1525,4.1531,4.1527,4.1529,4.123,4.1494,4.1491,4.149,4.1489,4.1488,4.0932,4.1,4.1042,4.1117,4.1152,4.1197,4.1262,4.1277,4.1345,4.142,4.141,4.1501,4.1544,4.1633,4.1663,4.1734,4.1699,4.1735,4.1744,4.1753,4.1762,4.1515,4.1746,4.1746,4.1745,4.1745,4.1744,0,4.1165,4.1189,4.1258,4.1326,4.1385,4.135,4.1401,4.1453,4.1533,4.1576,4.1636,4.173,4.1804,4.1827,4.1899,4.1951,4.1939,4.1971,4.1967,4.1972,4.1789,4.1761,4.1979,4.1979,4.1979,4.1979,4.1979,4.1979,4.1293,4.1405,4.1407,4.1536,4.156,4.1648,4.168,4.1722,4.1756,4.1862,4.1923,4.1936,4.1971,4.2045,4.2111,4.2116,4.2144,4.2182,4.2181,4.2009,4.1986,4.1963,4.1936,4.2188,4.2188,4.2358,4.2359,4.236]},{"header":{"parameterUnit":"m.s-1","parameterCategory":1,"la1":30.2991,"la2":30.254,"lo1":-89.0895,"lo2":-89.0444,"dy":0.0017,"dx":0.0017,"nx":28,"ny":28,"refTime":"2025-07-08T21:00:00:Z","depth":0,"parameterNumber":3,"parameterNumberName":"V-component_of_WINDS"},"data":[0,0,0,0,0,0,0,0,0,0,0,0,0,0,0,0,0,0,0,0,0,0,0,0,0,0,0,0,0,0,0,0,0,0,0,0,0,0,0,0,0,0,0,0,0,0,0,0,0,0,0,0,0,0,0,0,0,0,0.3409,0.3408,0,0.3304,0.3303,0.3302,0.322,0.3219,0.3218,0.3218,0.3108,0.3106,0.3104,0,0,0,0,0,0,0,0,0,0,0,0,0,0.3537,0.3535,0.3409,0.3408,0.3407,0.3304,0.3303,0.3301,0.322,0.3219,0.3218,0.3217,0.3109,0.3106,0.3104,0,0,0,0,0,0,0,0,0,0,0,0,0,0.3462,0.3535,0.341,0.3354,0.3348,0.3305,0.3303,0.3301,0.322,0.3219,0.3218,0.3217,0.311,0.3107,0.3103,0.3106,0,0,0.3093,0.3092,0,0,0,0,0,0,0,0,0.3466,0.3457,0.3363,0.3358,0.3351,0.3274,0.3308,0.3236,0.3221,0.3269,0.3218,0.3216,0.3164,0.3156,0.3139,0.3101,0.3097,0.3093,0.3091,0.309,0.3089,0,0,0,0,0,0,0,0.3472,0.3461,0.3368,0.3362,0.3354,0.3333,0.3321,0.3294,0.3224,0.3264,0.3258,0.3247,0.316,0.3142,0.3136,0.3095,0.3093,0.309,0.3088,0.3087,0.3053,0.3054,0,0,0,0,0,0,0.3486,0.3466,0.3371,0.3365,0.3407,0.3332,0.3318,0.33,0.3224,0.3212,0.3248,0.3244,0.3149,0.314,0.3132,0.313,0.309,0.3086,0.3085,0.3052,0.3053,0.3054,0,0,0,0,0,0,0.3489,0.3478,0.3375,0.3414,0.3399,0.3331,0.3311,0.3298,0.328,0.3212,0.3199,0.3243,0.3147,0.3136,0.3113,0.3125,0.3085,0.3082,0.3051,0.3052,0.3054,0.3127,0,0,0,0,0,0,0.3493,0.348,0.3481,0.3414,0.3397,0.336,0.3311,0.3297,0.3275,0.3268,0.3203,0.3192,0.3146,0.3119,0.311,0.312,0.3079,0.3049,0.3051,0.3053,0.3124,0.3131,0.3138,0,0,0,0,0,0.3498,0.3506,0.3482,0.3471,0.3398,0.3361,0.3351,0.3298,0.3276,0.3277,0.3232,0.3194,0.3125,0.3117,0.3106,0.3116,0.3048,0.3051,0.3053,0.312,0.313,0.3138,0,0,0,0,0,0,0.3575,0.3496,0.3468,0.3455,0.3415,0.3347,0.3346,0.331,0.3275,0.327,0.3205,0.3191,0.3175,0.3143,0.3135,0.3114,0.3082,0.3082,0.3136,0.3145,0.3152,0.316,0.3077,0,0,0,0,0,0.3591,0.3568,0.35,0.3495,0.3476,0.3415,0.3396,0.3359,0.3315,0.3298,0.3252,0.321,0.3179,0.316,0.3127,0.3118,0.3102,0.3119,0.3126,0.3132,0.3134,0.3126,0.3132,0.3062,0.3062,0.3062,0,0,0.3623,0.3577,0.3566,0.3509,0.3474,0.3451,0.3401,0.3379,0.3361,0.3294,0.327,0.3235,0.3183,0.3167,0.3158,0.314,0.3149,0.3135,0.3141,0.3139,0.3129,0.3136,0.3142,0.3064,0.3064,0.3063,0,0,0.367,0.3633,0.3624,0.359,0.3537,0.3496,0.3494,0.343,0.3405,0.3379,0.3328,0.3305,0.3253,0.3219,0.3194,0.3226,0.3189,0.3217,0.3255,0.3248,0.3254,0.3259,0.327,0.3275,0.3219,0.3219,0.3219,0,0.3716,0.3681,0.3624,0.3605,0.3581,0.3519,0.351,0.3479,0.3418,0.3403,0.3383,0.3316,0.3277,0.3252,0.326,0.3242,0.3237,0.3225,0.3258,0.3262,0.3265,0.3276,0.328,0.3223,0.3222,0.3222,0.3222,0,0.374,0.3716,0.3716,0.3659,0.3634,0.3621,0.3561,0.3543,0.3507,0.3468,0.3442,0.3393,0.3349,0.334,0.3305,0.331,0.33,0.327,0.3236,0.3277,0.3285,0.3289,0.3228,0.3227,0.3226,0.3225,0,0,0.3835,0.3746,0.3747,0.372,0.3657,0.3637,0.3619,0.3577,0.3562,0.3522,0.3505,0.3462,0.3433,0.3406,0.3366,0.336,0.3389,0.333,0.3328,0.3343,0.339,0.3414,0.3419,0.3363,0.3363,0.3364,0.3394,0,0.3872,0.3838,0.3786,0.3769,0.3746,0.3686,0.367,0.3629,0.3592,0.3565,0.3523,0.3493,0.3458,0.3441,0.3432,0.3387,0.3397,0.3384,0.3346,0.3346,0.3362,0.3424,0.3449,0.348,0.3397,0.3398,0.3398,0,0.3912,0.3875,0.3856,0.3794,0.3782,0.3769,0.3726,0.3701,0.3653,0.3626,0.3595,0.3551,0.3528,0.3497,0.3464,0.3457,0.3438,0.3413,0.3413,0.3408,0.3375,0.3421,0.3489,0.3494,0.3403,0.3402,0.3402,0,0.3983,0.3929,0.391,0.3889,0.3816,0.3808,0.3777,0.3727,0.3705,0.3666,0.3651,0.361,0.3588,0.3557,0.3503,0.3485,0.3476,0.344,0.3453,0.3454,0.3454,0.3455,0.3521,0.3441,0.3441,0.3441,0.3441,0,0.4031,0.4022,0.3941,0.393,0.3917,0.3857,0.3845,0.3809,0.3765,0.3745,0.3689,0.3671,0.3601,0.3575,0.3532,0.3511,0.3502,0.3478,0.3468,0.3484,0.3487,0.3472,0.3468,0.3442,0.3442,0.3442,0.3441,0,0.4109,0.4055,0.4031,0.3963,0.3945,0.3939,0.3881,0.3867,0.3825,0.38,0.3791,0.3725,0.3691,0.3634,0.3583,0.3554,0.3542,0.3523,0.3559,0.3552,0.3568,0.3567,0.3626,0.3631,0.3548,0.3549,0.355,0,0.4144,0.4135,0.4066,0.4049,0.402,0.3993,0.397,0.3909,0.3887,0.383,0.3823,0.3785,0.3751,0.3699,0.3646,0.3606,0.3586,0.361,0.358,0.3597,0.3587,0.3589,0.3587,0.3617,0.3618,0.3619,0.362,0,0.4211,0.4184,0.4153,0.4113,0.4087,0.4052,0.4014,0.4002,0.3933,0.3911,0.3875,0.3849,0.3797,0.3759,0.3712,0.3678,0.3638,0.3629,0.363,0.3647,0.3669,0.3658,0.3578,0.3629,0.3628,0.3627,0.3627,0.3626,0.4268,0.4258,0.4208,0.4175,0.414,0.4105,0.4089,0.4045,0.4015,0.3968,0.3934,0.3901,0.3851,0.3783,0.3752,0.3724,0.3706,0.3707,0.3708,0.3709,0.3715,0.3673,0.3715,0.3715,0.3715,0.3714,0.3714,0,0.4333,0.4298,0.4268,0.4217,0.4191,0.4154,0.411,0.4091,0.4062,0.402,0.3987,0.3946,0.3909,0.3853,0.3811,0.38,0.378,0.3791,0.3791,0.3784,0.3734,0.3738,0.3808,0.3808,0.3808,0.3808,0.3808,0.3808,0.4364,0.4344,0.4311,0.4273,0.4237,0.4205,0.4183,0.415,0.4116,0.4073,0.4042,0.4005,0.3957,0.3911,0.3875,0.3859,0.3847,0.3864,0.3842,0.3797,0.3788,0.378,0.3783,0.3861,0.3861,0.3895,0.3895,0.3895]}]]